Location: Krasnoyarskiy Pitomnik
(51.1333°N, 71.6167°E)
Time: 00:25:55
(UTC+00:00)

NOSS 2-2 (C) - Pass Details

Date: 01 June 2022
Orbit: 439 x 1763 km, 63.3° (Epoch: 02 June)

Event Time Altitude Azimuth Distance (km) Brightness Sun altitude
Rises 16:05:02 0° 315° (NW) 2,709 9.7 -6.1°
Reaches altitude 10° 16:07:13 10° 327° (NNW) 1,940 7.8 -6.3°
Maximum altitude 16:11:04 29° 30° (NNE) 1,287 5.4 -6.7°
Drops below altitude 10° 16:16:02 10° 90° (E) 2,556 6.3 -7.2°
Sets 16:19:20 0° 100° (E) 3,750 7.1 -7.6°
Enters shadow 16:19:28 - 101° (E) 3,796 7.1 -7.6°
